Location: *
(46.4000°N, 12.6667°E)
Time: 13:49:10
(UTC+00:00)

ISS - Pass Details

Date: 10 March 2021
Orbit: 418 x 422 km, 51.6° (Epoch: 17 April)

Event Time Altitude Azimuth Distance (km) Brightness Sun altitude
Exits shadow 03:12:28 37° 81° (E) 671 -2.3 -24.4°
Drops below altitude 10° 03:14:43 10° 101° (E) 1,496 -0.2 -24.1°
Sets 03:16:50 0° 106° (ESE) 2,358 0.9 -23.7°
